This is the latest recevied weather packets stored in our database for station/object KJ4OVR-WX. If no packets are shown the sender has not sent any weather packets the latest 10 day(s).
| Time | Temp. | Humidity | Pressure | Rain* | Wind** | Luminosity | Snow |
|---|---|---|---|---|---|---|---|
| 1777831248 | 18.89° C | 44% | 1020 hPa | 0 mm | - | - | - |
| 1777829749 | 18.89° C | 46% | 1020.3 hPa | 0 mm | - | - | - |
| 1777827649 | 18.33° C | 47% | 1020.9 hPa | 0 mm | - | - | - |
| 1777827058 | 18.33° C | 48% | 1021 hPa | 0 mm | - | - | - |
| 1777826749 | 18.33° C | 48% | 1021 hPa | 0 mm | - | - | - |
| 1777825849 | 17.78° C | 48% | 1021.1 hPa | 0 mm | - | - | - |
| 1777825549 | 18.33° C | 48% | 1021.1 hPa | 0 mm | - | - | - |
| 1777825250 | 17.78° C | 50% | 1021.1 hPa | 0 mm | - | - | - |
| 1777824350 | 17.22° C | 50% | 1021.3 hPa | 0 mm | - | - | - |
| 1777822250 | 15.56° C | 52% | 1021.9 hPa | 0 mm | - | - | - |
| 1777821950 | 15.56° C | 50% | 1021.9 hPa | 0 mm | - | - | - |
| 1777821650 | 15.56° C | 53% | 1021.9 hPa | 0 mm | - | - | - |
| 1777821351 | 15.56° C | 55% | 1022 hPa | 0 mm | - | - | - |
| 1777818952 | 14.44° C | 65% | 1022 hPa | 0 mm | - | - | - |
| 1777818652 | 13.89° C | 67% | 1022 hPa | 0 mm | - | - | - |
| 1777818052 | 13.33° C | 68% | 1022.1 hPa | 0 mm | - | - | - |
| 1777817753 | 13.33° C | 74% | 1022.2 hPa | 0 mm | - | - | - |
| 1777817152 | 12.78° C | 79% | 1022.3 hPa | 0 mm | - | - | - |
| 1777816852 | 12.22° C | 82% | 1022.4 hPa | 0 mm | - | - | - |
| 1777816313 | 11.67° C | 86% | 1022.4 hPa | 0 mm | - | - | - |
| 1777814753 | 10° C | 90% | 1022.4 hPa | 0 mm | - | - | - |
| 1777814156 | 9.44° C | 91% | 1022.5 hPa | 0 mm | - | - | - |
| 1777813314 | 8.89° C | 92% | 1022.5 hPa | 0 mm | - | - | - |
| 1777812653 | 7.78° C | 92% | 1022.6 hPa | 0 mm | - | - | - |
| 1777812354 | 7.78° C | 92% | 1022.7 hPa | 0 mm | - | - | - |
* Rain latest hour (hover to see other rain measurements)
** Current wind speed in m/s (hover to see current wind gust speed)